#timestamp,LO_Frequency,Hit,StdDev 
1627304415.7,286047001.7,N
1627304435.5,286047001.5,N
1627304455.4,286047004.2,N
1627304475.2,286047001.6,N
1627304495.0,286047002.5,N
1627304495.9,286047002.5,N
1627304515.8,286047001.5,N
1627304535.6,286047002.5,N
1627304555.4,286047002.6,N
1627304575.3,286047004.3,N
1627304595.1,286047001.8,N
1627304596.0,286047001.8,N
1627304615.8,286047001.4,N
1627304635.7,286047002.2,N
1627304655.5,286047002.6,N
1627304675.3,286047002.4,N
1627304695.2,286046999.7,N
1627304715.9,286047002.6,N
1627304735.7,286047001.5,N
1627304755.6,286047001.8,N
1627304775.4,286047002.8,N
1627304795.2,286047002.7,N
1627304815.1,286047002.3,N
1627304816.0,286047002.3,N
1627304835.8,286046999.7,N
1627304855.6,286047001.0,N
1627304875.5,286047002.7,N
1627304895.3,286047002.0,N
1627304915.1,286047002.4,N
1627304935.9,286046999.9,N
1627304955.7,286046999.7,N
1627304975.5,286046999.8,N
1627304995.3,286047002.8,N
1627305015.2,286046999.7,N
1627305035.0,286047002.7,N
1627305035.9,286047002.7,N
1627305055.7,286047000.5,N
1627305075.6,286046999.8,N
1627305095.4,286047000.7,N
1627305115.2,286047000.3,N
1627305135.1,286046998.1,N
1627305136.0,286046998.1,N
1627305155.8,286046998.4,N
1627305175.6,286047000.8,N
1627305195.5,286047000.7,N
1627305215.3,286047000.7,N
1627305235.1,286046998.2,N
1627305255.9,286047000.3,N
1627305275.7,286047001.0,N
1627305295.5,286047000.3,N
1627305315.4,286047000.7,N
1627305335.2,286046998.4,N
1627305355.0,286047000.7,N
1627305355.9,286047000.7,N
1627305375.8,286047001.1,N
1627305395.6,286047001.1,N
1627305415.4,286046998.8,N
1627305435.3,286046998.6,N
1627305455.1,286046998.7,N
1627305475.8,286046998.8,N
1627305495.7,286047001.2,N
1627305515.5,286046998.1,N
1627305535.3,286047001.1,N
1627305555.2,286046999.4,N
1627305575.0,286046998.5,N
1627305575.9,286046998.5,N
1627305595.7,286047000.9,N
1627305615.6,286046998.8,N
1627305635.4,286046999.3,N
1627305655.2,286046998.4,N
1627305675.1,286046998.8,N
1627305676.0,286046998.8,N
1627305695.8,286046999.0,N
1627305715.6,286046998.7,N
1627305735.5,286047000.8,N
1627305755.3,286047000.8,N
1627305775.1,286046998.3,N
1627305795.9,286046998.1,N
1627305815.7,286046999.3,N
1627305835.5,286046998.3,N
1627305855.4,286046998.2,N
1627305875.2,286046998.8,N
1627305895.0,286046998.5,N
1627305895.9,286046998.5,N
1627305915.8,286047000.6,N
1627305935.6,286047000.7,N
1627305955.4,286047001.1,N
1627305975.3,286047001.2,N
1627305995.1,286046998.9,N
1627306015.8,286046998.2,N
1627306035.7,286047000.9,N
1627306055.5,286046998.1,N
1627306075.3,286046998.3,N
1627306095.2,286047001.1,N
1627306115.0,286047001.2,N
1627306115.9,286047001.2,N
1627306135.7,286047001.1,N
1627306155.6,286047001.2,N
1627306175.4,286047000.0,N
1627306195.2,286047001.0,N
1627306215.1,286047001.0,N
1627306216.0,286047001.0,N
1627306235.8,286046998.8,N
1627306255.6,286046998.5,N
1627306275.5,286046998.6,N
1627306295.3,286047000.7,N
1627306315.1,286047000.5,N
1627306335.9,286047000.3,N
1627306355.7,286047000.0,N
1627306375.5,286046998.9,N
1627306395.4,286046999.2,N
1627306415.2,286046997.0,N
1627306435.0,286046996.6,N
1627306435.9,286046996.6,N
1627306455.8,286046999.1,N
1627306475.6,286046999.3,N
1627306495.4,286046999.4,N
1627306515.3,286046996.9,N
1627306535.1,286046998.8,N
1627306555.8,286046999.1,N
1627306575.7,286046999.6,N
1627306595.5,286046999.2,N
1627306615.4,286046999.0,N
1627306635.2,286046999.6,N
1627306655.0,286046997.3,N
1627306655.9,286046997.3,N
1627306675.8,286046996.8,N
1627306695.6,286046996.8,N
1627306715.4,286046997.4,N
1627306735.3,286046997.0,N
1627306755.1,286046997.1,N
1627306756.0,286046997.1,N
1627306775.8,286046996.7,N
1627306795.7,286046996.7,N
1627306815.5,286046997.7,N
1627306835.3,286046997.4,N
1627306855.2,286046997.7,N
1627306875.9,286046999.1,N
1627306895.7,286046999.0,N
1627306915.6,286046996.9,N
1627306935.4,286046999.2,N
1627306955.2,286046996.7,Y
1627306975.1,286047001.1,P
1627306976.0,286047001.1,N
1627306995.8,286046999.5,N
1627307015.6,286046996.9,N
1627307035.5,286046999.3,N
1627307055.3,286046999.2,N
1627307075.1,286046998.7,N
1627307095.9,286046998.6,N
1627307115.7,286046998.2,N
1627307135.5,286047001.2,N
1627307155.4,286046998.4,N
1627307175.2,286046998.7,N
1627307195.0,286046998.2,N
1627307195.9,286046998.2,N
1627307215.8,286046998.5,N
1627307235.6,286047000.9,N
1627307255.4,286047000.8,N
1627307275.3,286046998.3,N
1627307295.1,286047000.9,N
1627307296.0,286047000.9,N
1627307315.8,286047000.9,N
1627307335.7,286046998.9,N
1627307355.5,286046998.4,N
1627307375.3,286046998.1,N
1627307395.2,286046998.6,N
1627307415.9,286046998.1,N
1627307435.7,286046998.3,N
1627307455.6,286046998.6,N
1627307475.4,286046998.5,N
1627307495.2,286046998.7,N
1627307515.1,286046998.9,N
1627307516.0,286046998.9,N
1627307535.8,286046999.2,N
1627307555.6,286046997.6,N
1627307575.5,286046997.1,N
1627307595.3,286046999.3,N
1627307615.1,286046998.9,N
1627307635.9,286046999.0,N
1627307655.7,286046999.4,N
1627307675.5,286046999.3,N
1627307695.4,286046998.4,N
1627307715.2,286046998.4,N
1627307735.0,286046998.2,N
1627307735.9,286046998.2,N
1627307755.8,286046999.3,N
1627307775.6,286046999.5,N
1627307795.4,286046999.4,N
1627307815.3,286046998.8,N
1627307835.1,286046998.4,N
1627307836.0,286046998.4,N
1627307855.8,286046998.3,N
1627307875.7,286046998.2,Y
1627307895.5,286047000.5,P
1627307915.3,286046999.8,N
1627307935.2,286046999.9,N
1627307955.9,286047000.5,N
1627307975.7,286046998.5,N
1627307995.6,286046998.4,N
